�N����,����,�~����,�C��,���x,�C��,����,���ϕ���,�ő�u�ԕ���,�ő厞����,���˗�,�I�_���x,�n�����x,�ő啗���N��,DTYPE
"19/07/28","00:10",0.0,24.2,95.3,1006.4,298.7,0.5,0.8,327.8,0.00,23.4,25.2,"00:08:56",1
"19/07/28","00:20",0.0,24.2,95.4,1006.2,307.0,0.5,0.5,329.8,0.00,23.5,25.4,"00:10:08",1
"19/07/28","00:30",0.0,24.3,95.4,1006.0,302.7,0.5,0.6,321.8,0.00,23.6,25.5,"00:21:04",1
"19/07/28","00:40",0.0,24.2,95.4,1006.2,291.2,0.3,0.8,308.5,0.00,23.5,25.3,"00:33:28",1
"19/07/28","00:50",0.0,24.2,95.5,1006.0,310.1,0.6,0.9,339.3,0.00,23.5,25.4,"00:44:24",1
"19/07/28","01:00",0.0,24.2,95.6,1006.4,322.8,0.6,1.0,338.0,0.00,23.5,25.6,"00:58:32",1
"19/07/28","01:10",0.0,24.3,95.6,1006.4,333.5,0.8,1.2,336.2,0.00,23.6,25.6,"01:09:04",1
"19/07/28","01:20",0.0,24.2,95.5,1006.2,321.4,0.7,1.2,336.5,0.00,23.5,25.5,"01:18:56",1
"19/07/28","01:30",0.0,24.1,95.6,1006.2,256.7,0.6,1.2,237.7,0.00,23.4,25.5,"01:26:24",1
"19/07/28","01:40",0.0,24.0,95.7,1006.7,307.5,0.6,1.0,332.9,0.00,23.3,25.4,"01:35:36",1
"19/07/28","01:50",0.0,23.8,95.7,1006.4,305.7,0.3,1.0,308.8,0.00,23.1,25.2,"01:40:02",1
"19/07/28","02:00",0.0,23.9,95.8,1006.2,291.3,0.7,1.0,318.4,0.00,23.2,25.2,"01:50:32",1
"19/07/28","02:10",0.0,23.9,95.9,1006.4,297.6,0.6,1.0,327.2,0.00,23.2,25.2,"02:00:56",1
"19/07/28","02:20",0.0,23.8,95.9,1006.2,296.1,0.5,0.8,318.3,0.00,23.1,25.2,"02:16:24",1
"19/07/28","02:30",0.0,23.8,95.8,1006.7,334.6,0.7,1.1,345.6,0.00,23.1,25.3,"02:27:20",1
"19/07/28","02:40",0.0,23.7,95.9,1006.9,321.0,1.0,1.1,338.6,0.00,23.0,25.1,"02:31:04",1
"19/07/28","02:50",0.0,23.9,96.0,1006.4,261.4,0.3,0.8,288.9,0.00,23.3,25.2,"02:40:16",1
"19/07/28","03:00",0.0,23.8,96.0,1006.4,315.6,0.5,0.8,308.5,0.00,23.2,25.3,"02:59:20",1
"19/07/28","03:10",0.0,23.7,96.0,1006.9,326.1,0.8,1.2,335.2,0.00,23.1,25.2,"03:07:04",1
"19/07/28","03:20",0.0,23.6,96.0,1006.9,325.0,0.6,1.0,317.6,0.00,23.0,25.1,"03:19:28",1
"19/07/28","03:30",0.0,23.6,96.3,1006.7,318.5,0.7,1.1,320.6,0.00,23.0,25.3,"03:22:40",1
"19/07/28","03:40",0.0,23.5,96.2,1006.4,311.9,0.6,0.8,323.1,0.00,22.9,25.0,"03:30:24",1
"19/07/28","03:50",0.0,23.4,96.2,1006.2,288.4,0.3,0.9,336.6,0.00,22.8,25.0,"03:40:32",1
"19/07/28","04:00",0.0,23.4,96.4,1006.4,304.3,0.7,1.0,318.6,0.00,22.8,25.0,"03:56:16",1
"19/07/28","04:10",0.0,23.2,96.2,1006.4,297.5,0.6,0.9,316.3,0.00,22.6,24.9,"04:03:28",1
"19/07/28","04:20",0.0,23.2,96.4,1006.7,319.0,0.7,1.1,335.5,0.00,22.6,25.1,"04:13:44",1
"19/07/28","04:30",0.0,23.2,96.3,1006.4,311.9,0.7,1.2,331.6,0.00,22.6,25.2,"04:22:24",1
"19/07/28","04:40",0.2,23.3,96.5,1006.9,297.5,0.6,1.0,335.5,0.00,22.8,24.9,"04:37:20",1
"19/07/28","04:50",0.0,23.3,96.6,1006.9,305.9,0.7,0.9,325.2,0.00,22.8,24.8,"04:41:12",1
"19/07/28","05:00",0.0,23.3,96.5,1007.1,293.1,0.6,0.8,268.0,0.00,22.8,24.8,"04:52:00",1
"19/07/28","05:10",0.0,23.2,96.5,1006.9,300.9,0.2,0.6,285.6,0.00,22.7,24.9,"05:00:56",1
"19/07/28","05:20",0.0,23.1,96.5,1007.1,323.1,0.6,1.7,334.4,0.00,22.6,24.7,"05:19:20",1
"19/07/28","05:30",0.0,23.2,96.5,1006.9,326.2,0.7,1.6,337.6,0.00,22.7,24.8,"05:20:08",1
"19/07/28","05:40",0.0,23.1,96.7,1007.1,315.7,0.7,1.4,322.9,0.00,22.6,24.7,"05:39:20",1
"19/07/28","05:50",0.0,23.2,96.7,1007.1,336.4,0.8,1.3,323.9,0.00,22.7,24.6,"05:40:08",1
"19/07/28","06:00",0.0,23.3,96.7,1007.4,301.6,0.6,1.1,330.2,0.00,22.8,24.8,"05:50:08",1
"19/07/28","06:10",0.0,23.5,96.8,1007.6,288.4,0.6,0.8,290.0,0.00,23.0,24.8,"06:01:36",1
"19/07/28","06:20",0.0,23.7,96.7,1007.6,319.5,0.7,1.0,320.9,0.02,23.2,24.8,"06:14:40",1
"19/07/28","06:30",0.0,24.0,96.6,1007.6,331.3,0.6,1.1,335.6,0.03,23.5,24.9,"06:24:56",1
"19/07/28","06:40",0.0,24.2,96.4,1007.4,328.5,0.5,0.9,339.4,0.03,23.6,25.0,"06:32:40",1
"19/07/28","06:50",0.0,24.2,96.4,1007.4,277.9,0.2,0.5,315.7,0.02,23.6,24.8,"06:40:32",1
"19/07/28","07:00",0.0,24.3,96.4,1007.6,304.3,0.3,0.8,330.4,0.03,23.7,24.9,"06:56:48",1
"19/07/28","07:10",0.0,24.5,96.3,1007.4,353.0,0.6,1.2,323.2,0.04,23.9,25.0,"07:05:36",1
"19/07/28","07:20",0.0,24.7,96.0,1007.8,280.7,0.3,0.9,332.4,0.06,24.1,24.9,"07:10:56",1
"19/07/28","07:30",0.0,24.7,95.9,1007.8,221.6,0.0,0.4,255.6,0.07,24.0,25.1,"07:21:44",1
"19/07/28","07:40",0.0,25.2,95.3,1007.4,175.2,0.1,0.6,117.5,0.10,24.4,25.2,"07:39:44",1
"19/07/28","07:50",0.0,25.2,95.4,1007.6,20.7,0.3,0.9,105.0,0.11,24.5,25.3,"07:41:20",1
"19/07/28","08:00",0.0,25.6,95.1,1007.6,92.9,0.2,0.8,115.4,0.08,24.8,25.3,"07:55:28",1
"19/07/28","08:10",0.0,25.6,94.1,1007.6,78.9,0.2,0.8,334.6,0.09,24.6,25.4,"08:08:48",1
"19/07/28","08:20",0.0,25.9,93.9,1007.6,256.6,0.3,1.1,223.4,0.09,24.9,25.6,"08:14:00",1
"19/07/28","08:30",0.0,26.1,92.8,1007.8,355.6,0.2,0.6,47.4,0.10,24.9,25.5,"08:25:36",1
"19/07/28","08:40",0.0,26.3,91.5,1007.8,2.0,0.5,1.1,6.1,0.11,24.8,25.7,"08:37:28",1
"19/07/28","08:50",0.0,26.6,90.4,1008.1,2.5,0.7,1.3,346.3,0.11,24.9,25.7,"08:44:16",1
"19/07/28","09:00",0.0,26.9,89.8,1007.8,6.1,0.5,1.2,4.0,0.14,25.1,25.7,"08:50:32",1
"19/07/28","09:10",0.0,27.3,87.8,1008.1,165.5,0.2,0.9,4.7,0.16,25.1,25.7,"09:09:28",1
"19/07/28","09:20",0.0,27.4,86.9,1007.6,6.5,0.6,1.4,5.5,0.17,25.1,25.9,"09:13:12",1
"19/07/28","09:30",0.0,27.8,85.8,1007.4,357.6,0.7,1.4,48.0,0.19,25.2,26.2,"09:23:36",1
"19/07/28","09:40",0.0,28.1,86.4,1007.6,351.5,0.6,1.8,346.3,0.19,25.7,26.1,"09:30:16",1
"19/07/28","09:50",0.0,28.5,85.4,1007.6,62.6,0.5,1.2,334.5,0.22,25.8,26.4,"09:42:00",1
"19/07/28","10:00",0.0,28.6,82.0,1008.1,47.7,0.3,1.0,158.1,0.29,25.3,26.3,"09:57:44",1
"19/07/28","10:10",0.0,28.8,82.9,1008.3,62.8,0.5,1.3,134.4,0.20,25.6,26.7,"10:09:04",1
"19/07/28","10:20",0.0,28.6,82.3,1008.3,200.7,0.7,2.0,196.9,0.21,25.3,26.7,"10:19:44",1
"19/07/28","10:30",0.0,28.6,81.0,1008.3,182.9,1.0,2.1,123.7,0.18,25.1,26.7,"10:25:28",1
"19/07/28","10:40",0.0,29.0,79.9,1008.1,118.8,0.6,1.7,123.5,0.18,25.2,26.7,"10:30:56",1
"19/07/28","10:50",0.0,28.9,79.8,1008.1,251.2,0.3,1.6,204.7,0.14,25.1,26.8,"10:44:48",1
"19/07/28","11:00",0.0,29.3,79.8,1008.1,329.3,0.6,1.4,340.1,0.14,25.5,27.2,"10:56:00",1
"19/07/28","11:10",0.0,29.4,79.6,1008.1,33.6,0.5,1.3,111.0,0.20,25.5,27.1,"11:06:40",1
"19/07/28","11:20",0.0,29.8,78.0,1008.6,9.6,0.6,1.7,331.6,0.32,25.6,27.2,"11:16:08",1
"19/07/28","11:30",0.0,30.2,77.0,1008.1,55.0,0.7,1.7,31.5,0.34,25.8,27.5,"11:20:08",1
"19/07/28","11:40",0.0,30.1,76.0,1008.6,58.7,0.8,2.0,352.2,0.23,25.4,27.4,"11:36:56",1
"19/07/28","11:50",0.0,30.0,76.4,1008.1,44.7,0.7,2.0,10.8,0.18,25.4,27.6,"11:40:08",1
"19/07/28","12:00",0.0,30.3,77.0,1008.3,68.0,0.5,1.4,123.0,0.27,25.9,27.7,"11:56:56",1
"19/07/28","12:10",0.0,30.6,75.8,1008.3,179.0,0.8,2.2,146.0,0.30,25.9,27.8,"12:08:56",1
"19/07/28","12:20",0.0,30.2,75.5,1008.3,161.7,1.2,2.9,205.5,0.23,25.4,27.8,"12:16:32",1
"19/07/28","12:30",0.0,30.9,75.9,1007.8,140.9,0.8,1.6,164.8,0.38,26.2,28.0,"12:21:28",1
"19/07/28","12:40",0.0,31.7,73.4,1008.3,150.7,0.8,1.9,113.0,0.50,26.4,28.1,"12:31:12",1
"19/07/28","12:50",0.0,31.2,74.4,1008.8,176.6,1.5,4.7,209.7,0.45,26.1,28.2,"12:47:20",1
"19/07/28","13:00",0.0,31.5,73.3,1008.3,119.1,1.2,3.1,106.5,0.50,26.2,28.7,"12:57:36",1
"19/07/28","13:10",0.0,31.3,71.1,1008.3,118.0,1.3,2.7,126.9,0.48,25.5,28.9,"13:07:36",1
"19/07/28","13:20",0.0,32.2,71.7,1008.8,144.1,0.7,1.6,173.5,0.38,26.5,28.8,"13:14:48",1
"19/07/28","13:30",0.0,32.3,68.3,1008.6,141.6,1.1,2.4,115.8,0.48,25.7,29.2,"13:26:56",1
"19/07/28","13:40",0.0,32.4,69.6,1008.6,126.9,1.2,2.2,172.5,0.50,26.2,29.2,"13:33:36",1
"19/07/28","13:50",0.0,32.3,68.5,1008.6,171.6,1.1,2.9,125.2,0.34,25.8,29.1,"13:41:28",1
"19/07/28","14:00",0.0,32.7,69.4,1008.3,154.6,1.5,3.5,174.4,0.49,26.4,29.2,"13:52:16",1
"19/07/28","14:10",0.0,32.6,65.7,1008.8,170.0,0.6,1.7,171.9,0.44,25.4,29.4,"14:01:44",1
"19/07/28","14:20",0.0,33.0,65.3,1008.3,152.5,1.1,2.7,126.7,0.48,25.7,29.6,"14:13:20",1
"19/07/28","14:30",0.0,32.7,67.4,1008.3,185.9,1.5,3.1,166.3,0.32,25.9,29.5,"14:20:48",1
"19/07/28","14:40",0.0,32.7,67.1,1007.8,192.8,1.8,4.0,228.9,0.25,25.8,29.6,"14:36:08",1
"19/07/28","14:50",0.0,33.1,66.4,1007.4,167.1,1.6,3.2,192.5,0.41,26.0,29.6,"14:45:12",1
"19/07/28","15:00",0.0,32.6,64.8,1007.6,253.9,1.2,3.3,221.1,0.30,25.1,29.4,"14:54:32",1
"19/07/28","15:10",0.0,32.4,65.8,1007.1,272.2,0.8,2.9,239.5,0.17,25.2,29.7,"15:01:12",1
"19/07/28","15:20",0.0,33.4,65.5,1007.1,245.4,1.0,2.5,203.9,0.34,26.1,29.8,"15:16:32",1
"19/07/28","15:30",0.0,33.2,63.2,1007.1,227.8,1.2,3.3,234.6,0.33,25.3,29.9,"15:25:28",1
"19/07/28","15:40",0.0,33.4,63.1,1006.9,198.6,0.8,3.7,208.6,0.29,25.5,30.0,"15:36:56",1
"19/07/28","15:50",0.0,33.2,62.9,1007.1,206.4,1.0,1.9,210.7,0.26,25.2,29.9,"15:40:48",1
"19/07/28","16:00",0.0,33.5,61.6,1006.9,218.3,1.3,2.7,216.7,0.27,25.1,29.9,"15:57:20",1
"19/07/28","16:10",0.0,33.3,61.9,1006.4,215.1,1.6,3.9,210.4,0.27,25.0,30.1,"16:09:28",1
"19/07/28","16:20",0.0,33.0,62.7,1006.7,226.6,1.7,4.0,229.5,0.25,25.0,29.9,"16:14:56",1
"19/07/28","16:30",0.0,32.9,63.2,1006.4,203.2,2.1,4.1,232.0,0.23,25.0,30.0,"16:23:04",1
"19/07/28","16:40",0.0,33.1,62.4,1006.2,220.9,1.3,2.9,221.6,0.22,25.0,30.0,"16:31:36",1
"19/07/28","16:50",0.0,33.1,61.3,1006.4,240.9,1.2,3.2,227.7,0.19,24.7,30.0,"16:42:24",1
"19/07/28","17:00",0.0,33.3,63.1,1006.4,217.9,1.0,2.5,180.9,0.18,25.4,29.9,"16:58:00",1
"19/07/28","17:10",0.0,33.0,62.8,1006.4,221.3,0.8,1.7,135.3,0.16,25.0,30.0,"17:00:16",1
"19/07/28","17:20",0.0,33.0,62.8,1006.2,220.0,2.0,4.5,218.4,0.14,25.0,29.9,"17:15:52",1
"19/07/28","17:30",0.0,33.2,61.2,1006.2,219.9,1.6,3.5,218.7,0.12,24.8,29.8,"17:28:24",1
"19/07/28","17:40",0.0,33.1,62.1,1006.2,228.4,1.3,3.3,230.2,0.10,24.9,29.8,"17:37:52",1
"19/07/28","17:50",0.0,32.9,62.2,1005.7,232.3,1.2,4.3,221.6,0.08,24.7,29.7,"17:46:00",1
"19/07/28","18:00",0.0,32.6,63.9,1006.2,242.3,0.8,2.9,223.3,0.05,24.9,29.8,"17:56:32",1
"19/07/28","18:10",0.0,32.3,64.0,1006.2,239.7,0.8,2.1,238.5,0.03,24.7,29.6,"18:02:08",1
"19/07/28","18:20",0.0,31.9,65.0,1005.5,234.4,0.8,3.3,228.9,0.00,24.5,29.5,"18:13:12",1
"19/07/28","18:30",0.0,31.5,66.5,1006.0,237.8,0.6,1.9,223.5,0.00,24.5,29.3,"18:26:00",1
"19/07/28","18:40",0.0,31.3,68.4,1005.7,221.3,1.1,2.1,216.3,0.00,24.8,29.3,"18:38:16",1
"19/07/28","18:50",0.0,31.1,70.1,1005.5,268.3,0.6,1.4,218.6,0.01,25.0,29.1,"18:40:08",1
"19/07/28","19:00",0.0,30.8,73.0,1005.2,346.3,0.3,1.3,356.8,0.01,25.4,28.9,"18:55:20",1
"19/07/28","19:10",0.0,30.3,75.1,1005.2,307.8,0.2,0.9,348.4,0.01,25.4,29.2,"19:08:24",1
"19/07/28","19:20",0.0,30.0,76.2,1005.0,321.4,0.5,1.3,340.2,0.00,25.4,29.0,"19:16:32",1
"19/07/28","19:30",0.0,29.7,77.3,1004.8,330.4,0.3,1.3,347.7,0.00,25.3,28.9,"19:23:44",1
"19/07/28","19:40",0.0,29.4,78.6,1004.3,337.4,0.5,1.3,341.0,0.00,25.3,28.9,"19:34:00",1
"19/07/28","19:50",0.0,29.2,79.9,1005.0,356.6,0.6,1.1,16.8,0.00,25.4,28.8,"19:44:48",1
"19/07/28","20:00",0.0,28.8,81.5,1005.2,318.9,0.3,0.8,234.4,0.00,25.4,28.7,"19:59:44",1
"19/07/28","20:10",0.0,28.3,82.2,1005.7,308.3,0.6,1.1,315.3,0.00,25.0,28.5,"20:00:16",1
"19/07/28","20:20",0.0,28.2,83.1,1005.7,286.4,0.6,0.9,250.5,0.00,25.1,28.4,"20:17:12",1
"19/07/28","20:30",0.0,28.1,83.7,1006.0,331.2,0.6,1.3,340.2,0.00,25.1,28.5,"20:26:32",1
"19/07/28","20:40",0.0,27.9,84.0,1006.4,328.2,0.7,1.3,337.5,0.00,25.0,28.2,"20:38:16",1
"19/07/28","20:50",0.0,27.7,84.8,1006.4,329.0,0.8,1.1,320.5,0.00,24.9,28.2,"20:48:56",1
"19/07/28","21:00",0.0,27.5,85.6,1006.7,307.5,0.8,1.2,343.5,0.00,24.9,28.2,"20:50:32",1
"19/07/28","21:10",0.0,27.4,86.0,1006.7,305.1,0.8,1.3,323.3,0.00,24.9,28.1,"21:04:56",1
"19/07/28","21:20",0.0,27.3,86.1,1006.7,288.4,0.8,2.1,249.2,0.00,24.8,27.8,"21:17:20",1
"19/07/28","21:30",0.0,27.3,86.3,1006.4,330.2,1.2,3.1,337.4,0.00,24.8,27.7,"21:22:00",1
"19/07/28","21:40",0.0,27.1,86.8,1007.1,293.7,0.3,0.9,331.2,0.00,24.7,27.8,"21:30:08",1
"19/07/28","21:50",0.0,26.9,87.4,1007.1,320.0,0.7,1.4,343.6,0.00,24.7,27.8,"21:49:36",1
"19/07/28","22:00",0.0,26.9,87.6,1006.9,329.6,1.2,2.0,329.9,0.00,24.7,27.6,"21:59:36",1
"19/07/28","22:10",0.0,26.8,87.6,1006.9,334.1,1.2,2.6,350.2,0.00,24.6,27.7,"22:01:12",1
"19/07/28","22:20",0.0,26.8,88.0,1007.1,280.0,0.2,0.8,325.7,0.00,24.7,27.7,"22:10:08",1
"19/07/28","22:30",0.0,26.7,88.2,1007.1,318.7,0.0,0.3,105.2,0.00,24.6,27.4,"22:20:08",1
"19/07/28","22:40",0.0,26.6,88.7,1007.4,315.3,0.8,1.4,331.3,0.00,24.6,27.5,"22:39:36",1
"19/07/28","22:50",0.0,26.5,88.9,1006.9,337.2,1.2,2.4,341.0,0.00,24.6,27.4,"22:47:28",1
"19/07/28","23:00",0.0,26.4,89.2,1006.9,294.4,0.6,1.9,333.8,0.00,24.5,27.5,"22:50:56",1
"19/07/28","23:10",0.0,26.3,89.3,1007.1,269.6,0.6,1.0,268.3,0.00,24.4,27.2,"23:03:36",1
"19/07/28","23:20",0.0,26.3,89.3,1007.1,275.5,0.7,1.1,285.3,0.00,24.4,27.2,"23:14:48",1
"19/07/28","23:30",0.0,26.1,89.6,1006.9,281.1,0.8,1.2,321.5,0.00,24.3,27.3,"23:23:52",1
"19/07/28","23:40",0.0,26.0,89.8,1007.1,278.8,0.8,1.3,262.8,0.00,24.2,27.2,"23:30:16",1
"19/07/28","23:50",0.0,26.0,89.8,1007.1,275.6,0.7,1.1,258.4,0.00,24.2,27.3,"23:40:16",1
"19/07/28","24:00",0.0,25.9,89.8,1007.1,309.9,1.0,1.6,324.0,0.00,24.1,27.1,"23:57:04",1
